Raleigh-Durham Airport, NC

11:39 PM EDT on March 23, 2017 (GMT -0400)
Raleigh-Durham International

Weather History for KRDU - August, 2012

Change the Weather History Date:

Sunday, August 26, 2012

  Actual Average Record
Temperature  
Mean Temperature 75 °F 77 °F  
Max Temperature 84 °F 87 °F 101 °F (1943)
Min Temperature 65 °F 68 °F 54 °F (1942)
Degree Days  
Heating Degree Days 0 0  
Month to date heating degree days 0 0  
Since 1 June heating degree days 0 4  
Since 1 July heating degree days 0 0  
Cooling Degree Days 10 12  
Month to date cooling degree days 346 360  
Year to date cooling degree days 1549 1382  
Since 1 June cooling degree days 1227 1173  
Growing Degree Days 24 (Base 50)    
Moisture  
Dew Point 65 °F    
Average Humidity 76    
Maximum Humidity 93    
Minimum Humidity 58    
Precipitation  
Precipitation 0.00 in 0.16 in 2.70 in (1934)
Month to date precipitation 4.03 3.55  
Year to date precipitation 27.63 28.83  
Sea Level Pressure  
Sea Level Pressure 30.14 in    
Wind  
Wind Speed 3 mph (East)    
Max Wind Speed 10 mph    
Max Gust Speed 12 mph    
Visibility 10 miles    
Events      
T = Trace of Precipitation, MM = Missing Value Source: NWS Daily Summary

Daily Weather History Graph

Daily Weather History Graph

Search for Another Location

Airport or City:

Trip Planner

Search our weather history database for the weather conditions in past years. The results will help you decide how hot, cold, wet, or windy it might be!

Date:

Astronomy

Aug. 26, 2012 Rise Set
Actual Time 6:42 AM EDT 7:50 PM EDT
Civil Twilight 6:16 AM EDT 8:16 PM EDT
Nautical Twilight 5:44 AM EDT 8:47 PM EDT
Astronomical Twilight 5:12 AM EDT 9:20 PM EDT
Moon 4:12 PM EDT (8/26) 1:28 AM EDT (8/26)
Length of Visible Light 14h 00m
Length of Day
13h 07m
Waxing Gibbous, 73% of the Moon is Illuminated
Aug 26
Waxing Gibbous
Aug 31
Full
Sep 8
Last Quarter
Sep 15
New
Sep 22
First Quarter

Hourly Weather History & Observations

Time (EDT) Temp. Heat Index Dew Point Humidity Pressure Visibility Wind Dir Wind Speed Gust Speed Precip Events Conditions
12:34 AM 68.0 °F - 62.6 °F 83% 30.13 in 10.0 mi Calm Calm - N/A   Overcast
12:51 AM 68.0 °F - 64.0 °F 87% 30.12 in 10.0 mi Calm Calm - N/A   Mostly Cloudy
1:51 AM 68.0 °F - 64.0 °F 87% 30.12 in 10.0 mi Calm Calm - N/A   Mostly Cloudy
2:51 AM 66.2 °F - 62.6 °F 88% 30.12 in 10.0 mi SSW 3.5 mph - N/A   Scattered Clouds
3:51 AM 66.0 °F - 64.0 °F 93% 30.12 in 8.0 mi Calm Calm - N/A   Mostly Cloudy
4:51 AM 66.9 °F - 64.0 °F 90% 30.12 in 10.0 mi SSE 3.5 mph - N/A   Overcast
5:51 AM 66.0 °F - 63.0 °F 90% 30.12 in 10.0 mi Calm Calm - N/A   Scattered Clouds
6:51 AM 64.4 °F - 62.6 °F 94% 30.15 in 10.0 mi South 3.5 mph - N/A   Scattered Clouds
7:51 AM 66.0 °F - 63.0 °F 90% 30.16 in 10.0 mi Calm Calm - N/A   Scattered Clouds
8:51 AM 70.0 °F - 63.0 °F 78% 30.17 in 10.0 mi Calm Calm - N/A   Scattered Clouds
9:26 AM 71.6 °F - 62.6 °F 73% 30.19 in 10.0 mi Calm Calm - N/A   Mostly Cloudy
9:51 AM 73.0 °F - 63.0 °F 71% 30.19 in 10.0 mi Calm Calm - N/A   Mostly Cloudy
10:51 AM 75.2 °F - 64.4 °F 69% 30.21 in 10.0 mi Variable 3.5 mph - N/A   Mostly Cloudy
11:51 AM 78.1 °F - 66.0 °F 66% 30.19 in 10.0 mi SSW 6.9 mph - N/A   Scattered Clouds
12:51 PM 80.1 °F 82.1 °F 66.0 °F 62% 30.18 in 10.0 mi SSW 4.6 mph - N/A   Scattered Clouds
1:51 PM 82.0 °F 84.5 °F 66.9 °F 60% 30.15 in 10.0 mi SW 4.6 mph - N/A   Scattered Clouds
2:51 PM 82.0 °F 84.1 °F 66.0 °F 58% 30.14 in 10.0 mi NE 4.6 mph - N/A   Scattered Clouds
3:51 PM 82.9 °F 85.8 °F 68.0 °F 60% 30.12 in 10.0 mi NE 8.1 mph - N/A   Mostly Cloudy
4:51 PM 82.0 °F 84.9 °F 68.0 °F 62% 30.11 in 10.0 mi NE 6.9 mph - N/A   Mostly Cloudy
5:51 PM 82.9 °F 85.8 °F 68.0 °F 60% 30.11 in 10.0 mi East 5.8 mph - N/A   Scattered Clouds
6:51 PM 80.6 °F 82.7 °F 66.2 °F 61% 30.12 in 10.0 mi NE 5.8 mph - N/A   Partly Cloudy
7:51 PM 77.0 °F - 66.9 °F 71% 30.11 in 10.0 mi NNE 3.5 mph - N/A   Partly Cloudy
8:51 PM 73.9 °F - 68.0 °F 82% 30.14 in 10.0 mi NE 4.6 mph - N/A   Scattered Clouds
9:51 PM 75.9 °F - 68.0 °F 76% 30.15 in 10.0 mi East 8.1 mph - N/A   Mostly Cloudy
10:51 PM 73.0 °F - 68.0 °F 84% 30.13 in 10.0 mi Calm Calm - N/A   Partly Cloudy
11:51 PM 73.4 °F - 68.0 °F 83% 30.14 in 10.0 mi Calm Calm - N/A   Clear